Louisville Bowman, KY

12:46 AM EDT on March 30, 2017 (GMT -0400)
Bowman

Weather History for KLOU - May, 2012

Change the Weather History Date:

Friday, May 4, 2012

  Actual Average Record
Temperature  
Mean Temperature 78 °F 63 °F  
Max Temperature 87 °F 73 °F 95 °F (1959)
Min Temperature 68 °F 53 °F 32 °F (1976)
Degree Days  
Heating Degree Days 0 4  
Month to date heating degree days 0 17  
Since 1 July heating degree days 3181 4208  
Cooling Degree Days 13 2  
Month to date cooling degree days 50 7  
Year to date cooling degree days 158 41  
Growing Degree Days 26 (Base 50)    
Moisture  
Dew Point 65 °F    
Average Humidity 70    
Maximum Humidity 84    
Minimum Humidity 55    
Precipitation  
Precipitation 0.58 in 0.18 in 1.56 in (2007)
Month to date precipitation 0.59 0.74  
Year to date precipitation 15.29 15.54  
Sea Level Pressure  
Sea Level Pressure 29.98 in    
Wind  
Wind Speed 6 mph (SW)    
Max Wind Speed 30 mph    
Max Gust Speed 38 mph    
Visibility 10 miles    
Events Rain , Thunderstorm    
T = Trace of Precipitation, MM = Missing Value Source: NWS Daily Summary

Daily Weather History Graph

Daily Weather History Graph

Search for Another Location

Airport or City:

Trip Planner

Search our weather history database for the weather conditions in past years. The results will help you decide how hot, cold, wet, or windy it might be!

Date:

Astronomy

May. 04, 2012 Rise Set
Actual Time 6:42 AM EDT 8:37 PM EDT
Civil Twilight 6:13 AM EDT 9:06 PM EDT
Nautical Twilight 5:38 AM EDT 9:41 PM EDT
Astronomical Twilight 5:01 AM EDT 10:18 PM EDT
Moon 7:15 PM EDT (5/4) 5:21 AM EDT (5/4)
Length of Visible Light 14h 52m
Length of Day
13h 55m
Waxing Gibbous, 97% of the Moon is Illuminated
May 4
Waxing Gibbous
May 5
Full
May 12
Last Quarter
May 20
New
May 28
First Quarter

Hourly Weather History & Observations

Time (EDT) Temp. Heat Index Dew Point Humidity Pressure Visibility Wind Dir Wind Speed Gust Speed Precip Events Conditions
12:53 AM 71.1 °F - 63.0 °F 75% 30.01 in 10.0 mi SE 3.5 mph - N/A   Clear
1:53 AM 70.0 °F - 63.0 °F 78% 30.00 in 10.0 mi Calm Calm - N/A   Clear
2:53 AM 69.1 °F - 63.0 °F 81% 30.00 in 10.0 mi Calm Calm - N/A   Partly Cloudy
3:53 AM 70.0 °F - 64.0 °F 81% 30.01 in 10.0 mi Calm Calm - N/A   Overcast
4:53 AM 70.0 °F - 64.0 °F 81% 30.01 in 10.0 mi South 4.6 mph - N/A   Partly Cloudy
5:48 AM 69.8 °F - 64.4 °F 83% 30.02 in 10.0 mi Calm Calm - N/A   Mostly Cloudy
5:53 AM 69.1 °F - 64.0 °F 84% 30.01 in 10.0 mi South 3.5 mph - N/A   Overcast
6:11 AM 69.8 °F - 64.4 °F 83% 30.01 in 10.0 mi South 5.8 mph - N/A   Overcast
6:53 AM 70.0 °F - 64.9 °F 84% 30.01 in 10.0 mi SW 5.8 mph - N/A   Overcast
7:53 AM 70.0 °F - 64.9 °F 84% 30.02 in 10.0 mi WSW 4.6 mph - N/A   Scattered Clouds
8:34 AM 71.6 °F - 64.4 °F 78% 30.03 in 10.0 mi SW 5.8 mph - N/A   Mostly Cloudy
8:51 AM 73.4 °F - 66.2 °F 78% 30.03 in 10.0 mi SW 8.1 mph - N/A   Scattered Clouds
8:53 AM 73.4 °F - 66.2 °F 78% 30.03 in 10.0 mi SW 6.9 mph - N/A   Scattered Clouds
9:53 AM 75.9 °F - 66.9 °F 74% 30.00 in 10.0 mi SSW 9.2 mph - N/A   Clear
10:53 AM 79.0 °F - 68.0 °F 69% 30.01 in 10.0 mi West 6.9 mph - N/A   Mostly Cloudy
11:53 AM 80.1 °F 82.7 °F 68.0 °F 67% 30.03 in 10.0 mi WSW 5.8 mph - N/A   Overcast
12:06 PM 80.6 °F 83.2 °F 68.0 °F 65% 30.04 in 10.0 mi West 5.8 mph - N/A   Overcast
12:29 PM 82.4 °F 85.4 °F 68.0 °F 62% 30.02 in 10.0 mi SSW 6.9 mph - N/A   Mostly Cloudy
12:39 PM 82.4 °F 85.4 °F 68.0 °F 62% 30.02 in 10.0 mi Variable 4.6 mph - N/A   Mostly Cloudy
12:53 PM 82.0 °F 84.5 °F 66.9 °F 60% 30.00 in 10.0 mi SSW 5.8 mph - N/A   Scattered Clouds
1:53 PM 84.0 °F 87.0 °F 68.0 °F 58% 29.97 in 10.0 mi SW 8.1 mph 16.1 mph N/A   Scattered Clouds
2:53 PM 84.9 °F 87.6 °F 66.9 °F 55% 29.96 in 10.0 mi SW 10.4 mph - N/A   Scattered Clouds
3:53 PM 84.9 °F 87.6 °F 66.9 °F 55% 29.96 in 10.0 mi WSW 10.4 mph - N/A   Scattered Clouds
4:53 PM 82.9 °F 85.4 °F 66.9 °F 58% 29.96 in 10.0 mi SW 12.7 mph 19.6 mph N/A   Mostly Cloudy
5:00 PM 80.6 °F 83.2 °F 68.0 °F 65% 29.97 in 3.0 mi SSW 13.8 mph 20.7 mph 0.05 in Rain , Thunderstorm Thunderstorms and Rain
5:53 PM 73.9 °F - 63.0 °F 68% 29.87 in 3.0 mi SE 6.9 mph - 0.06 in Rain Light Rain
6:05 PM 73.4 °F - 62.6 °F 69% 29.89 in 10.0 mi Variable 3.5 mph - 0.00 in Rain , Thunderstorm Light Rain
6:33 PM 71.6 °F - 62.6 °F 73% 29.85 in 10.0 mi Variable 3.5 mph - 0.00 in Rain Light Rain
6:53 PM 72.0 °F - 64.0 °F 76% 29.91 in 10.0 mi NW 9.2 mph - 0.00 in   Partly Cloudy
7:53 PM 75.0 °F - 63.0 °F 66% 29.92 in 10.0 mi Calm Calm - N/A   Clear
8:53 PM 73.9 °F - 64.0 °F 71% 29.91 in 10.0 mi Calm Calm - N/A   Clear
9:53 PM 72.0 °F - 64.9 °F 78% 29.90 in 10.0 mi SE 3.5 mph - N/A   Scattered Clouds
10:53 PM 71.1 °F - 64.0 °F 78% 29.88 in 10.0 mi South 3.5 mph - N/A   Clear
11:53 PM 72.0 °F - 64.0 °F 76% 29.91 in 10.0 mi North 10.4 mph - N/A Thunderstorm Mostly Cloudy